When you browse on this site, cookies collect data to enhance your experience and personalize the content and advertising you see.
Visit our Privacy Policy to learn more. By continuing to use the site, you agree to this use of cookies and data.

Météo par heure à Springfield

Ce jour, 4 Juillet, Samedi

Heure Température Précipitation Vent Pression Humidité
00:00 +16°C° 0 mm 0 m/s 737 mmHg 97%
01:00 +16°C° 0 mm 0 m/s 737 mmHg 96%
02:00 +15°C° 0 mm 0 m/s 737 mmHg 96%
03:00 +15°C° 0 mm 0 m/s 737 mmHg 97%
04:00 +14°C° 0 mm 0 m/s 736 mmHg 97%
05:00 +16°C° 0 mm 0 m/s 737 mmHg 94%
06:00 +18°C° 0 mm 0 m/s 737 mmHg 91%
07:00 +20°C° 0 mm 0 m/s 737 mmHg 88%
08:00 +24°C° 0 mm 1 m/s 737 mmHg 75%
09:00 +26°C° 0 mm 1 m/s 737 mmHg 62%
10:00 +29°C° 0 mm 1 m/s 737 mmHg 50%
11:00 +29°C° 0 mm 1 m/s 737 mmHg 46%
12:00 +30°C° 0 mm 1 m/s 737 mmHg 43%
13:00 +30°C° 0 mm 1 m/s 737 mmHg 39%
14:00 +30°C° 0 mm 1 m/s 737 mmHg 39%
15:00 +30°C° 0 mm 1 m/s 736 mmHg 38%
16:00 +30°C° 0 mm 2 m/s 736 mmHg 37%
17:00 +28°C° 0 mm 1 m/s 736 mmHg 47%
18:00 +26°C° 0 mm 1 m/s 736 mmHg 58%
19:00 +23°C° 0 mm 1 m/s 736 mmHg 68%
20:00 +22°C° 0 mm 1 m/s 737 mmHg 70%
21:00 +20°C° 0 mm 1 m/s 737 mmHg 72%
22:00 +19°C° 0 mm 1 m/s 737 mmHg 74%
23:00 +17°C° 0 mm 0 m/s 737 mmHg 75%

Demain, 5 Juillet, Dimanche

Heure Température Précipitation Vent Pression Humidité
00:00 +16°C° 0 mm 0 m/s 737 mmHg 76%
01:00 +16°C° 0 mm 0 m/s 737 mmHg 77%
02:00 +15°C° 0 mm 0 m/s 737 mmHg 76%
03:00 +15°C° 0 mm 0 m/s 737 mmHg 75%
04:00 +15°C° 0 mm 0 m/s 737 mmHg 74%
05:00 +17°C° 0 mm 0 m/s 737 mmHg 70%
06:00 +18°C° 0 mm 0 m/s 737 mmHg 66%
07:00 +20°C° 0 mm 0 m/s 737 mmHg 62%
08:00 +23°C° 0 mm 0 m/s 737 mmHg 53%
09:00 +27°C° 0 mm 1 m/s 737 mmHg 45%
10:00 +30°C° 0 mm 1 m/s 737 mmHg 36%
11:00 +30°C° 0 mm 1 m/s 737 mmHg 36%
12:00 +31°C° 0 mm 2 m/s 737 mmHg 35%
13:00 +31°C° 0 mm 3 m/s 737 mmHg 34%
14:00 +30°C° 0 mm 2 m/s 736 mmHg 40%
15:00 +29°C° 0 mm 2 m/s 736 mmHg 46%
16:00 +28°C° 0 mm 2 m/s 736 mmHg 52%
17:00 +26°C° 0.2 mm 2 m/s 736 mmHg 60%
18:00 +25°C° 0.2 mm 2 m/s 736 mmHg 67%
19:00 +24°C° 0.2 mm 2 m/s 736 mmHg 75%
20:00 +21°C° 0.2 mm 2 m/s 737 mmHg 81%
21:00 +21°C° 0.2 mm 1 m/s 737 mmHg 86%
22:00 +19°C° 0.2 mm 1 m/s 737 mmHg 92%
23:00 +19°C° 0 mm 1 m/s 737 mmHg 94%

Après-demain, 6 Juillet, Lundi

Heure Température Précipitation Vent Pression Humidité
00:00 +18°C° 0 mm 1 m/s 737 mmHg 95%
01:00 +18°C° 0 mm 1 m/s 737 mmHg 97%
02:00 +16°C° 0 mm 1 m/s 737 mmHg 97%
03:00 +16°C° 0 mm 1 m/s 738 mmHg 97%
04:00 +15°C° 0 mm 1 m/s 738 mmHg 97%
05:00 +18°C° 0 mm 1 m/s 739 mmHg 93%
06:00 +19°C° 0 mm 1 m/s 739 mmHg 88%
07:00 +20°C° 0 mm 1 m/s 740 mmHg 84%
08:00 +21°C° 0 mm 2 m/s 740 mmHg 69%
09:00 +24°C° 0 mm 2 m/s 740 mmHg 54%
10:00 +26°C° 0 mm 3 m/s 741 mmHg 38%
11:00 +27°C° 0 mm 3 m/s 740 mmHg 36%
12:00 +28°C° 0 mm 3 m/s 740 mmHg 34%
13:00 +28°C° 0 mm 2 m/s 740 mmHg 31%
14:00 +28°C° 0 mm 2 m/s 740 mmHg 32%
15:00 +28°C° 0 mm 2 m/s 740 mmHg 33%
16:00 +28°C° 0 mm 1 m/s 740 mmHg 34%
17:00 +26°C° 0 mm 1 m/s 740 mmHg 46%
18:00 +24°C° 0 mm 1 m/s 740 mmHg 57%
19:00 +19°C° 0 mm 0 m/s 740 mmHg 69%
20:00 +18°C° 0 mm 0 m/s 740 mmHg 69%
21:00 +17°C° 0 mm 0 m/s 741 mmHg 70%
22:00 +16°C° 0 mm 0 m/s 741 mmHg 70%
23:00 +15°C° 0 mm 0 m/s 741 mmHg 72%

7 Juillet, Mardi

Heure Température Précipitation Vent Pression Humidité
00:00 +15°C° 0 mm 0 m/s 741 mmHg 73%
01:00 +14°C° 0 mm 0 m/s 740 mmHg 75%
02:00 +14°C° 0 mm 0 m/s 740 mmHg 78%
03:00 +14°C° 0 mm 0 m/s 740 mmHg 82%
04:00 +13°C° 0 mm 0 m/s 740 mmHg 85%
05:00 +16°C° 0 mm 1 m/s 740 mmHg 83%
06:00 +19°C° 0 mm 1 m/s 741 mmHg 82%
07:00 +20°C° 0 mm 1 m/s 741 mmHg 81%
08:00 +21°C° 0.2 mm 1 m/s 741 mmHg 83%
09:00 +22°C° 0.2 mm 1 m/s 741 mmHg 86%
10:00 +22°C° 0.2 mm 1 m/s 740 mmHg 89%
11:00 +23°C° 0.1 mm 2 m/s 740 mmHg 85%
12:00 +24°C° 0.1 mm 2 m/s 740 mmHg 81%
13:00 +25°C° 0.1 mm 2 m/s 739 mmHg 77%
14:00 +26°C° 0 mm 3 m/s 739 mmHg 78%
15:00 +26°C° 0 mm 3 m/s 739 mmHg 79%
16:00 +26°C° 0 mm 3 m/s 738 mmHg 79%
17:00 +25°C° 0.1 mm 2 m/s 738 mmHg 84%
18:00 +25°C° 0.1 mm 2 m/s 738 mmHg 88%
19:00 +24°C° 0.1 mm 2 m/s 738 mmHg 93%
20:00 +23°C° 0.9 mm 1 m/s 738 mmHg 95%
21:00 +22°C° 0.9 mm 1 m/s 738 mmHg 97%
22:00 +22°C° 0.9 mm 1 m/s 738 mmHg 98%
23:00 +22°C° 0.2 mm 1 m/s 738 mmHg 99%

8 Juillet, Mercredi

Heure Température Précipitation Vent Pression Humidité
00:00 +22°C° 0.2 mm 1 m/s 737 mmHg 99%
01:00 +22°C° 0.2 mm 1 m/s 737 mmHg 99%
02:00 +21°C° 0 mm 1 m/s 737 mmHg 99%
03:00 +21°C° 0 mm 1 m/s 737 mmHg 98%
04:00 +21°C° 0 mm 1 m/s 737 mmHg 98%
05:00 +22°C° 0 mm 1 m/s 737 mmHg 97%
06:00 +23°C° 0 mm 1 m/s 737 mmHg 96%
07:00 +24°C° 0 mm 1 m/s 737 mmHg 95%
08:00 +26°C° 0 mm 1 m/s 737 mmHg 83%
09:00 +29°C° 0 mm 1 m/s 737 mmHg 70%
10:00 +32°C° 0 mm 1 m/s 737 mmHg 58%
11:00 +32°C° 0.2 mm 1 m/s 737 mmHg 55%
12:00 +33°C° 0.2 mm 1 m/s 737 mmHg 52%
13:00 +34°C° 0.2 mm 2 m/s 737 mmHg 49%
14:00 +34°C° 0.1 mm 2 m/s 736 mmHg 49%
15:00 +34°C° 0.1 mm 2 m/s 736 mmHg 49%
16:00 +34°C° 0.1 mm 2 m/s 736 mmHg 49%
17:00 +30°C° 0.4 mm 1 m/s 736 mmHg 63%
18:00 +28°C° 0.4 mm 1 m/s 736 mmHg 76%
19:00 +23°C° 0.4 mm 0 m/s 736 mmHg 90%
20:00 +22°C° 0.2 mm 0 m/s 737 mmHg 91%
21:00 +21°C° 0.2 mm 0 m/s 737 mmHg 93%
22:00 +20°C° 0.2 mm 0 m/s 737 mmHg 94%
23:00 +19°C° 0 mm 0 m/s 737 mmHg 95%

9 Juillet, Jeudi

Heure Température Précipitation Vent Pression Humidité
00:00 +19°C° 0 mm 0 m/s 737 mmHg 95%
01:00 +19°C° 0 mm 0 m/s 737 mmHg 95%
02:00 +19°C° 0 mm 0 m/s 737 mmHg 95%
03:00 +19°C° 0 mm 0 m/s 737 mmHg 96%
04:00 +18°C° 0 mm 0 m/s 737 mmHg 96%
05:00 +20°C° 0 mm 0 m/s 737 mmHg 94%
06:00 +21°C° 0 mm 0 m/s 738 mmHg 92%
07:00 +23°C° 0 mm 0 m/s 738 mmHg 90%
08:00 +26°C° 0 mm 0 m/s 738 mmHg 79%
09:00 +28°C° 0 mm 0 m/s 739 mmHg 68%
10:00 +31°C° 0 mm 0 m/s 739 mmHg 57%
11:00 +34°C° 0 mm 1 m/s 738 mmHg 51%
12:00 +34°C° 0 mm 1 m/s 738 mmHg 45%
13:00 +36°C° 0 mm 2 m/s 738 mmHg 40%
14:00 +36°C° 0 mm 2 m/s 738 mmHg 42%
15:00 +35°C° 0 mm 2 m/s 738 mmHg 44%
16:00 +35°C° 0 mm 2 m/s 738 mmHg 46%
17:00 +32°C° 0.1 mm 2 m/s 738 mmHg 57%
18:00 +29°C° 0.1 mm 1 m/s 738 mmHg 67%
19:00 +27°C° 0.1 mm 1 m/s 738 mmHg 78%
20:00 +26°C° 0 mm 1 m/s 738 mmHg 82%
21:00 +25°C° 0 mm 1 m/s 738 mmHg 86%
22:00 +24°C° 0 mm 1 m/s 738 mmHg 90%
23:00 +23°C° 0 mm 1 m/s 738 mmHg 92%
Voir plus